| time (UTC) | temp F | wind direction | speed knots | gust knots | rain 1hr in | rain 24hr in | rain mn in | humidity % | barometer mb |
| 20260903222009 | 65 | 257 | 2.6 | 5.2 | 0.00 | 0.00 | 0.00 | 62 | 1020.0 |
| 20260903221056 | 65 | 259 | 2.6 | 5.2 | 0.00 | 0.00 | 0.00 | 61 | 1020.1 |
| 20260903220009 | 66 | 241 | 1.7 | 3.5 | 0.00 | 0.00 | 0.00 | 61 | 1019.9 |
| 20260903215010 | 66 | 254 | 0.9 | 2.6 | 0.00 | 0.00 | 0.00 | 59 | 1019.8 |
| 20260903214009 | 66 | 254 | 1.7 | 3.5 | 0.00 | 0.00 | 0.00 | 59 | 1019.9 |
| 20260903213009 | 67 | 230 | 0.9 | 3.5 | 0.00 | 0.00 | 0.00 | 58 | 1019.9 |
| 20260903212009 | 67 | 230 | 0.9 | 3.5 | 0.00 | 0.00 | 0.00 | 58 | 1019.9 |
| 20260903211008 | 67 | 266 | 0.9 | 2.6 | 0.00 | 0.00 | 0.00 | 57 | 1019.9 |
| 20260903210018 | 67 | 276 | 1.7 | 2.6 | 0.00 | 0.00 | 0.00 | 56 | 1020.0 |
| 20260903205008 | 68 | 277 | 1.7 | 3.5 | 0.00 | 0.00 | 0.00 | 56 | 1020.0 |
| 20260903204009 | 68 | 277 | 1.7 | 7.8 | 0.00 | 0.00 | 0.00 | 56 | 1019.9 |
| 20260903203008 | 68 | 277 | 1.7 | 7.8 | 0.00 | 0.00 | 0.00 | 56 | 1019.9 |
| 20260903202013 | 68 | 236 | 0.9 | 3.5 | 0.00 | 0.00 | 0.00 | 56 | 1019.9 |
| 20260903201013 | 68 | 236 | 1.7 | 5.2 | 0.00 | 0.00 | 0.00 | 56 | 1019.9 |
| 20260903200013 | 68 | 228 | 1.7 | 5.2 | 0.00 | 0.00 | 0.00 | 57 | 1019.7 |
| 20260903195013 | 68 | 231 | 1.7 | 5.2 | 0.00 | 0.00 | 0.00 | 57 | 1019.5 |
| 20260903194013 | 68 | 225 | 1.7 | 3.5 | 0.00 | 0.00 | 0.00 | 57 | 1019.7 |
| 20260903193013 | 68 | 228 | 0.0 | 2.6 | 0.00 | 0.00 | 0.00 | 58 | 1019.9 |
| 20260903192013 | 69 | 220 | 0.0 | 0.0 | 0.00 | 0.00 | 0.00 | 56 | 1019.8 |
| 20260903191013 | 69 | 220 | 0.0 | 0.0 | 0.00 | 0.00 | 0.00 | 56 | 1019.8 |
| 20260903190013 | 69 | 220 | 0.0 | 1.7 | 0.00 | 0.00 | 0.00 | 56 | 1019.7 |
| 20260903185013 | 69 | 220 | 0.9 | 2.6 | 0.00 | 0.00 | 0.00 | 56 | 1019.7 |
| 20260903184013 | 69 | 219 | 0.0 | 2.6 | 0.00 | 0.00 | 0.00 | 56 | 1019.5 |
| 20260903183013 | 70 | 219 | 0.9 | 2.6 | 0.00 | 0.00 | 0.00 | 55 | 1019.5 |
| 20260903182012 | 70 | 252 | 0.0 | 2.6 | 0.00 | 0.00 | 0.00 | 55 | 1019.5 |
| 20260903181012 | 70 | 261 | 0.9 | 2.6 | 0.00 | 0.00 | 0.00 | 55 | 1019.4 |
| 20260903180012 | 71 | 262 | 0.9 | 3.5 | 0.00 | 0.00 | 0.00 | 54 | 1019.4 |
| 20260903175012 | 71 | 277 | 1.7 | 3.5 | 0.00 | 0.00 | 0.00 | 54 | 1019.4 |
| 20260903174013 | 71 | 280 | 2.6 | 6.1 | 0.00 | 0.00 | 0.00 | 54 | 1019.4 |
| 20260903173012 | 72 | 238 | 3.5 | 8.7 | 0.00 | 0.00 | 0.00 | 54 | 1019.5 |
| 20260903172012 | 72 | 260 | 4.3 | 12.2 | 0.00 | 0.00 | 0.00 | 53 | 1019.5 |
| 20260903171013 | 73 | 258 | 7.8 | 15.6 | 0.00 | 0.00 | 0.00 | 53 | 1019.6 |
| 20260903170012 | 73 | 230 | 5.2 | 15.6 | 0.00 | 0.00 | 0.00 | 53 | 1019.5 |
| 20260903165012 | 73 | 256 | 4.3 | 8.7 | 0.00 | 0.00 | 0.00 | 52 | 1019.3 |
| 20260903164012 | 73 | 222 | 4.3 | 12.2 | 0.00 | 0.00 | 0.00 | 53 | 1019.2 |
| 20260903163012 | 73 | 219 | 3.5 | 9.6 | 0.00 | 0.00 | 0.00 | 52 | 1019.3 |
| 20260903162012 | 73 | 259 | 1.7 | 7.0 | 0.00 | 0.00 | 0.00 | 53 | 1019.3 |
| 20260903161012 | 73 | 232 | 3.5 | 9.6 | 0.00 | 0.00 | 0.00 | 53 | 1019.4 |
| 20260903160012 | 73 | 228 | 2.6 | 7.0 | 0.00 | 0.00 | 0.00 | 53 | 1019.3 |
| 20260903155012 | 72 | 254 | 3.5 | 8.7 | 0.00 | 0.00 | 0.00 | 54 | 1019.3 |
| 20260903154012 | 72 | 223 | 2.6 | 7.0 | 0.00 | 0.00 | 0.00 | 54 | 1019.5 |
| 20260903153012 | 72 | 223 | 2.6 | 7.0 | 0.00 | 0.00 | 0.00 | 54 | 1019.5 |
| 20260903152012 | 73 | 252 | 2.6 | 7.0 | 0.00 | 0.00 | 0.00 | 54 | 1019.5 |
| 20260903151012 | 73 | 198 | 3.5 | 7.8 | 0.00 | 0.00 | 0.00 | 52 | 1019.4 |
| 20260903150012 | 73 | 211 | 1.7 | 5.2 | 0.00 | 0.00 | 0.00 | 53 | 1019.5 |
| 20260903145011 | 72 | 231 | 1.7 | 5.2 | 0.00 | 0.00 | 0.00 | 54 | 1019.7 |
| 20260903144011 | 72 | 203 | 2.6 | 7.0 | 0.00 | 0.00 | 0.00 | 54 | 1019.7 |
| 20260903143012 | 72 | 248 | 2.6 | 7.0 | 0.00 | 0.00 | 0.00 | 56 | 1019.9 |
| 20260903142011 | 72 | 173 | 3.5 | 10.4 | 0.00 | 0.00 | 0.00 | 53 | 1019.9 |
| 20260903141011 | 73 | 209 | 4.3 | 11.3 | 0.00 | 0.00 | 0.00 | 53 | 1020.0 |
| 20260903140011 | 73 | 271 | 4.3 | 9.6 | 0.00 | 0.00 | 0.00 | 54 | 1019.9 |
| 20260903135011 | 73 | 252 | 4.3 | 10.4 | 0.00 | 0.00 | 0.00 | 53 | 1020.1 |
| 20260903134011 | 73 | 269 | 4.3 | 10.4 | 0.00 | 0.00 | 0.00 | 53 | 1020.3 |
| 20260903133011 | 73 | 257 | 5.2 | 11.3 | 0.00 | 0.00 | 0.00 | 51 | 1020.3 |
| 20260903132011 | 74 | 283 | 7.0 | 17.4 | 0.00 | 0.00 | 0.00 | 53 | 1020.3 |
| 20260903131011 | 74 | 233 | 5.2 | 11.3 | 0.00 | 0.00 | 0.00 | 51 | 1020.5 |
| 20260903130011 | 74 | 281 | 5.2 | 11.3 | 0.00 | 0.00 | 0.00 | 52 | 1020.5 |
| 20260903125011 | 74 | 238 | 3.5 | 7.8 | 0.00 | 0.00 | 0.00 | 52 | 1020.3 |
| 20260903124011 | 74 | 274 | 5.2 | 14.8 | 0.00 | 0.00 | 0.00 | 52 | 1020.2 |
| 20260903123011 | 74 | 292 | 5.2 | 12.2 | 0.00 | 0.00 | 0.00 | 52 | 1020.2 |
| 20260903122011 | 74 | 242 | 3.5 | 11.3 | 0.00 | 0.00 | 0.00 | 52 | 1020.3 |
| 20260903121011 | 74 | 227 | 4.3 | 15.6 | 0.00 | 0.00 | 0.00 | 51 | 1020.5 |
| 20260903120011 | 74 | 236 | 4.3 | 11.3 | 0.00 | 0.00 | 0.00 | 52 | 1020.5 |
| 20260903115011 | 74 | 219 | 4.3 | 10.4 | 0.00 | 0.00 | 0.00 | 53 | 1020.6 |
| 20260903114011 | 74 | 238 | 5.2 | 12.2 | 0.00 | 0.00 | 0.00 | 52 | 1020.8 |
| 20260903113011 | 75 | 280 | 5.2 | 10.4 | 0.00 | 0.00 | 0.00 | 51 | 1020.8 |
| 20260903112011 | 75 | 240 | 6.1 | 11.3 | 0.00 | 0.00 | 0.00 | 50 | 1020.9 |
| 20260903111011 | 74 | 269 | 1.7 | 8.7 | 0.00 | 0.00 | 0.00 | 52 | 1020.9 |
| 20260903110011 | 74 | 245 | 3.5 | 9.6 | 0.00 | 0.00 | 0.00 | 50 | 1021.0 |
| 20260903105011 | 73 | 188 | 4.3 | 11.3 | 0.00 | 0.00 | 0.00 | 54 | 1021.2 |
| 20260903104011 | 72 | 211 | 3.5 | 11.3 | 0.00 | 0.00 | 0.00 | 53 | 1021.3 |
| 20260903103011 | 71 | 192 | 1.7 | 5.2 | 0.00 | 0.00 | 0.00 | 55 | 1021.4 |
| 20260903102011 | 70 | 168 | 3.5 | 8.7 | 0.00 | 0.00 | 0.00 | 53 | 1021.4 |
| 20260903101011 | 70 | 212 | 3.5 | 7.8 | 0.00 | 0.00 | 0.00 | 52 | 1021.7 |
| 20260903100011 | 70 | 245 | 4.3 | 10.4 | 0.00 | 0.00 | 0.00 | 55 | 1021.8 |
| 20260903095011 | 70 | 254 | 5.2 | 12.2 | 0.00 | 0.00 | 0.00 | 52 | 1021.7 |
| 20260903094011 | 70 | 286 | 4.3 | 9.6 | 0.00 | 0.00 | 0.00 | 52 | 1021.7 |
| 20260903093009 | 70 | 245 | 5.2 | 10.4 | 0.00 | 0.00 | 0.00 | 55 | 1021.4 |
| 20260903092019 | 70 | 245 | 5.2 | 10.4 | 0.00 | 0.00 | 0.00 | 55 | 1021.4 |
| 20260903091011 | 69 | 264 | 6.1 | 10.4 | 0.00 | 0.00 | 0.00 | 56 | 1021.5 |
| 20260903090010 | 69 | 282 | 5.2 | 13.9 | 0.00 | 0.00 | 0.00 | 59 | 1021.4 |
| 20260903085010 | 69 | 244 | 6.1 | 12.2 | 0.00 | 0.00 | 0.00 | 56 | 1021.5 |
| 20260903084009 | 68 | 216 | 3.5 | 7.8 | 0.00 | 0.00 | 0.00 | 59 | 1021.6 |
| 20260903083009 | 68 | 262 | 2.6 | 7.8 | 0.00 | 0.00 | 0.00 | 61 | 1021.6 |
| 20260903082009 | 67 | 251 | 3.5 | 8.7 | 0.00 | 0.00 | 0.00 | 61 | 1021.5 |
| 20260903081009 | 67 | 223 | 2.6 | 7.0 | 0.00 | 0.00 | 0.00 | 65 | 1021.4 |
| 20260903080009 | 66 | 250 | 2.6 | 7.8 | 0.00 | 0.00 | 0.00 | 63 | 1021.2 |
| 20260903075009 | 66 | 250 | 2.6 | 7.8 | 0.00 | 0.00 | 0.00 | 63 | 1021.2 |
| 20260903074009 | 65 | 236 | 2.6 | 8.7 | 0.00 | 0.00 | 0.00 | 66 | 1021.5 |
| 20260903073009 | 63 | 234 | 2.6 | 8.7 | 0.00 | 0.00 | 0.00 | 69 | 1021.6 |
| 20260903072009 | 62 | 267 | 3.5 | 7.0 | 0.00 | 0.00 | 0.00 | 71 | 1021.8 |
| 20260903071009 | 60 | 273 | 0.9 | 6.1 | 0.00 | 0.00 | 0.00 | 75 | 1021.8 |
| 20260903070009 | 58 | 303 | 0.0 | 0.0 | 0.00 | 0.00 | 0.00 | 78 | 1021.7 |
| 20260903065010 | 57 | 303 | 0.0 | 1.7 | 0.00 | 0.00 | 0.00 | 81 | 1021.7 |
| 20260903064009 | 56 | 303 | 0.0 | 0.9 | 0.00 | 0.00 | 0.00 | 82 | 1021.7 |
| 20260903063009 | 56 | 303 | 0.0 | 1.7 | 0.00 | 0.00 | 0.00 | 85 | 1021.8 |
| 20260903062009 | 55 | 303 | 0.0 | 0.0 | 0.00 | 0.00 | 0.00 | 90 | 1021.7 |
| 20260903061010 | 54 | 302 | 0.0 | 0.0 | 0.00 | 0.00 | 0.00 | 91 | 1021.8 |